Regional Weather Roundup
Issued by NWS

Home | Current Version | Previous Version | Graphics & Text | Print | Product List | Glossary On
Versions: 1 2 3 4 5 6 7 8 9 10 11 12 13 14 15 16 17 18 19 20 21 22 23 24 25 26 27 28 29 30 31 32 33 34 35 36 37 38 39 40 41 42 43 44 45 46 47 48 49 50
000
ASUS43 KFSD 301602
RWRSD

WEATHER ROUNDUP FOR SOUTH DAKOTA
NATIONAL WEATHER SERVICE SIOUX FALLS SD
1100 AM CDT THU MAR 30 2017

NOTE: "FAIR" INDICATES FEW OR NO CLOUDS BELOW 12,000 FEET WITH NO
SIGNIFICANT WEATHER AND/OR OBSTRUCTIONS TO VISIBILITY.


SDZ001>005-009-010-012>017-301700-
NORTHWEST AND NORTH CENTRAL SOUTH DAKOTA

CITY           SKY/WX    TMP DP  RH WIND       PRES   REMARKS
BUFFALO          N/A     48  40  73 SE10      29.67S
FAITH            N/A     38  38 100 MISG      29.79S
MOBRIDGE       CLOUDY    43  34  70 SE12      29.83F
$$

SDZ012>016-024>037-041>051-057-063-072>074-301700-
SOUTHWEST AND SOUTH CENTRAL SOUTH DAKOTA

CITY           SKY/WX    TMP DP  RH WIND       PRES   REMARKS
RAPID CTY ARPT CLOUDY    40  39  97 SE10      29.76S
PIERRE         CLOUDY    40  34  79 SE12      29.86S
CUSTER         CLOUDY    42  34  73 W3        29.76F
ELLSWORTH AFB  CLOUDY    44  42  95 CALM      29.75R
PHILIP         CLOUDY    38  37  97 E10       29.83S
PINE RIDGE     MOSUNNY   46  40  79 CALM      29.77F
SPEARFISH      FAIR      48  37  66 NW7       29.74R
WINNER         CLOUDY    40  35  83 E6        29.86S
$$

SDZ004>011-016>023-039-040-301700-
NORTHEAST SOUTH DAKOTA

CITY           SKY/WX    TMP DP  RH WIND       PRES   REMARKS
ABERDEEN       CLOUDY    41  34  76 E3        29.90F
WATERTOWN      CLOUDY    38  35  89 E9        29.87S
BROOKINGS      CLOUDY    38  35  89 E13       29.85S
SISSETON         N/A     44  37  76 SE9       29.89F
$$

SDZ017-020-022-023-036>040-048>070-301700-
SOUTHEAST SOUTH DAKOTA

CITY           SKY/WX    TMP DP  RH WIND       PRES   REMARKS
SIOUX FALLS    DRIZZLE   40  38  93 E16       29.83F
HURON          CLOUDY    41  35  79 E8        29.89R
CHAMBERLAIN    CLOUDY    42  38  84 E7        29.87S
MITCHELL       CLOUDY    42  35  76 NE8       29.88R
YANKTON        CLOUDY    39  36  87 NE13      29.83S
$$

ABBREVIATIONS USED IN REMARKS
   TC - TEMPERATURE IN CELSIUS
  WCI - WIND CHILL INDEX
   HX - HEAT INDEX
  VSB - VISIBILITY





USA.gov is the U.S. government's official web portal to all federal, state and local government web resources and services.